Location: Newark
(41.0400°S, 62.7845°W)
Time: 05:39:26
(UTC+00:00)

Courier 1B Rocket - Pass Details

Date: 01 December 2021
Orbit: 920 x 1202 km, 28.2° (Epoch: 24 January)

Event Time Altitude Azimuth Distance (km) Brightness Sun altitude
Rises 21:02:07 0° 283° (WNW) 4,077 9.4 24.9°
Reaches altitude 10° 21:06:48 10° 307° (NW) 3,069 8.4 24.0°
Maximum altitude 21:10:08 13° 333° (NNW) 2,779 7.7 23.4°
Drops below altitude 10° 21:13:23 10° 360° (N) 2,982 7.5 22.8°
Sets 21:17:49 0° 25° (NNE) 3,869 7.8 22.0°
